Location: Banksville Park
(38.5557°N, 75.1182°W)
Time: 13:54:35
(UTC+00:00)

ERS-2 - Pass Details

Date: 19 September 2020
Orbit: 492 x 499 km, 98.6° (Epoch: 25 October)

Event Time Altitude Azimuth Distance (km) Brightness Sun altitude
Rises 08:49:52 0° 152° (SSE) 2,576 5.8 -23.0°
Reaches altitude 10° 08:51:59 10° 145° (SE) 1,698 5.0 -22.6°
Maximum altitude 08:55:28 44° 73° (ENE) 699 3.3 -21.9°
Drops below altitude 10° 08:58:59 10° 0° (N) 1,710 5.1 -21.3°
Sets 09:01:07 0° 354° (N) 2,598 5.9 -20.9°
